Powrót do katalogu

DELTA 1 DEB

AktywnyLEO
NORAD 10220·DEBRIS·🇺🇸 United States

Wystrzelony Jul 14, 1977 z Cape Canaveral Space Force Station

Loading…

Następne Przeloty (najbliższe 24 godziny)

TLE

ŚwieżeSource: Space-Track

Epoka: Sep 14, 2026, 05:41 UTC

1 10220U 77065AX  26257.23682701  .00006188  00000-0  18173-2 0  9996
2 10220  29.1370 331.6837 0348136 180.5193 179.5049 14.12493176389140

Śledź DELTA 1 DEB w czasie rzeczywistym z AllMySat

Download on the App Store